Wind_Speed
23 24 24 24 24 24 24 25 26 26 27 27 28 29 29 30 30 31 30 30 31 31 32 33 34 34 34 35 35 35 36 36 37 38 39 40 40 41
23 24 24 24 24 24 25 25 25 26 26 27 28 29 29 30 31 31 31 31 31 32 33 34 34 35 35 36 36 36 36 36 38 38 39 40 41 41
24 24 24 24 25 25 26 26 26 26 26 26 27 28 29 30 31 31 32 33 32 32 33 34 34 34 35 36 36 36 36 36 37 38 38 39 40 41
24 24 25 25 26 26 26 26 26 27 27 27 27 27 28 29 30 31 32 33 33 32 32 33 33 34 34 35 35 35 36 36 36 37 38 39 40 41
24 24 25 25 26 27 27 27 27 27 26 26 26 27 27 28 29 30 31 32 32 32 32 32 33 33 34 34 34 35 35 35 35 36 38 39 39 40
23 24 24 25 26 26 27 27 27 27 27 26 26 27 27 27 28 29 29 30 31 31 32 32 32 32 33 33 34 34 35 35 36 36 37 38 39 40
23 24 24 25 25 26 26 27 27 27 26 26 26 26 26 27 28 28 28 29 30 31 32 32 32 31 32 33 33 33 34 35 35 36 37 38 39 39
22 23 24 25 25 25 26 26 26 26 25 25 25 25 26 26 27 27 27 27 28 29 30 30 30 30 31 32 33 34 35 34 34 35 36 37 37 38
22 23 23 23 24 24 24 25 24 24 25 25 25 25 25 26 26 26 26 26 27 27 26 26 27 28 29 30 31 32 33 33 33 34 34 35 37 37
21 22 23 23 23 23 23 23 23 23 23 24 24 24 24 24 24 25 25 26 26 25 26 26 27 28 28 29 30 31 31 32 32 32 32 32 34 36
22 22 23 23 23 23 23 23 23 23 22 22 22 22 23 23 23 23 23 24 24 24 25 26 26 26 27 28 29 29 29 30 30 30 31 32 33 34
22 22 22 22 22 21 21 21 21 22 22 22 22 22 22 22 22 22 22 21 22 23 23 24 24 25 26 27 26 27 27 28 29 30 31 31 32 32
23 22 22 22 21 21 21 21 21 21 21 21 21 22 22 21 21 21 21 21 21 21 22 23 23 24 24 24 25 25 26 26 26 28 29 29 30 31
22 22 22 21 21 21 21 21 21 21 21 21 21 21 22 21 21 21 21 21 21 21 21 21 21 22 22 23 24 24 25 25 25 25 27 28 29 30
22 22 21 21 21 21 22 22 22 21 21 21 21 21 21 21 21 21 21 20 20 20 21 21 21 21 21 22 23 23 24 25 26 25 25 25 26 28
22 22 21 20 20 21 22 22 21 21 21 20 21 21 21 20 19 19 19 19 19 19 20 21 21 21 21 21 22 23 24 23 23 24 24 24 24 25
21 21 21 21 21 21 22 22 21 21 20 20 20 19 19 18 18 18 18 18 18 18 19 19 19 20 20 21 21 21 21 22 22 22 23 23 24 24
21 21 21 21 21 22 22 22 21 21 20 19 19 18 18 18 17 16 16 16 16 16 17 17 18 18 19 20 20 20 20 20 20 21 22 22 23 25
21 21 21 21 22 22 21 21 20 20 19 19 19 18 17 16 16 15 15 15 15 16 16 16 16 17 18 18 18 18 18 18 18 19 20 21 22 22
22 21 21 21 22 22 21 21 21 20 19 19 18 17 16 16 15 15 15 15 15 16 16 15 15 16 16 17 18 18 18 18 18 19 19 20 20 21
22 22 22 22 22 22 22 21 21 20 19 18 18 17 16 16 15 14 14 15 15 15 14 14 14 14 15 16 17 17 18 18 18 18 18 18 18 18
21 22 23 23 23 23 22 21 20 20 19 18 18 17 16 15 15 14 14 14 14 14 13 13 13 13 14 14 15 16 16 16 16 16 17 17 17 17
22 23 23 24 24 23 22 21 20 20 19 18 17 16 16 15 14 14 13 13 14 14 14 13 13 13 13 13 14 14 14 14 14 14 15 15 15 15
Wind_Direction
288 288 288 287 286 286 285 284 284 282 280 277 276 274 272 270 269 268 268 267 266 264 264 263 261 259 258 256 256 255 253 252 251 250 249 250 250 249
289 287 287 288 287 286 286 286 285 284 283 280 277 275 274 271 270 269 268 267 266 265 265 264 262 260 260 258 257 255 254 253 252 251 250 250 250 249
291 289 289 289 288 288 286 286 287 286 284 282 279 276 275 273 271 269 269 268 267 265 265 264 262 261 260 259 258 257 256 255 254 252 252 251 250 249
293 291 291 291 290 289 288 287 288 287 285 283 280 279 277 276 274 271 269 268 268 267 265 264 262 261 259 259 259 259 257 257 256 254 253 252 251 250
295 296 294 293 292 291 290 290 291 289 287 283 279 279 278 277 276 274 272 270 268 267 266 265 264 261 259 259 259 259 258 256 256 256 254 252 252 252
297 297 296 295 294 293 292 292 291 288 287 284 281 280 278 277 277 277 275 273 270 268 267 266 264 262 260 260 259 260 260 258 257 257 257 254 253 252
299 300 299 298 296 296 295 294 291 289 287 286 284 282 280 278 277 278 277 273 271 269 268 266 265 264 261 261 261 260 260 260 259 257 257 255 253 252
304 303 302 301 299 299 296 295 294 292 289 287 286 285 283 280 278 277 276 274 272 270 269 266 263 262 262 262 261 261 261 259 259 257 256 254 253 251
305 304 305 304 303 302 299 297 296 294 292 290 289 289 285 282 280 277 275 273 272 270 268 266 265 265 263 262 262 261 260 260 259 258 256 254 252 250
311 310 310 307 305 303 303 300 300 298 296 294 293 291 288 286 283 280 277 275 273 272 270 270 268 265 264 264 264 264 263 261 258 257 256 255 252 250
314 313 311 308 306 306 305 304 303 302 300 298 297 295 293 291 288 284 281 279 277 276 274 272 269 266 265 265 265 265 264 262 258 256 256 256 255 253
315 315 315 313 311 309 309 309 308 306 304 301 299 298 296 293 290 286 284 283 281 278 275 273 272 270 267 266 266 265 264 262 260 258 257 256 255 254
318 318 318 318 316 315 313 312 311 308 305 303 302 300 299 296 291 289 287 285 282 279 277 274 272 270 270 269 266 266 265 262 261 261 260 258 256 254
322 321 320 320 319 319 318 316 314 311 308 305 303 301 299 297 294 292 290 285 281 279 278 277 274 272 271 271 269 267 265 264 264 264 262 260 258 255
322 322 322 322 321 320 319 318 317 315 313 309 306 304 302 299 295 293 292 286 282 279 277 275 273 272 271 272 271 270 269 268 267 266 264 261 259 258
322 323 323 323 322 321 321 319 317 316 316 312 309 308 305 302 298 296 293 289 285 282 278 275 275 274 273 274 274 271 270 269 268 265 264 263 260 259
327 325 324 324 324 323 321 321 320 319 318 316 314 312 309 306 303 300 295 290 286 283 279 276 278 279 276 275 275 273 270 269 267 265 264 262 260 260
328 328 327 327 326 325 324 322 321 319 317 316 317 315 312 309 306 304 301 297 292 288 285 280 279 278 277 276 275 274 272 271 267 265 264 263 261 260
330 329 328 328 328 327 325 323 322 320 318 317 316 315 314 313 311 308 306 302 298 293 287 282 281 280 279 279 277 275 275 274 271 269 267 265 264 263
332 330 329 330 330 329 327 325 325 323 321 319 318 317 316 316 314 310 308 305 303 300 294 289 285 282 280 279 278 276 276 274 273 271 270 267 267 267
334 333 333 332 332 331 330 329 329 327 325 324 322 322 320 317 316 312 310 308 304 303 298 292 287 287 283 279 278 278 277 274 271 271 272 273 272 270
335 335 335 335 335 334 333 332 331 329 327 327 325 324 323 320 319 315 313 313 310 307 303 298 292 290 285 283 281 279 279 276 273 274 274 275 274 271
336 336 337 337 338 338 337 334 333 332 330 331 330 328 327 325 323 320 316 315 313 309 306 302 296 294 289 285 284 283 282 277 273 273 273 274 274 273
Height
5740 5737 5735 5733 5731 5729 5727 5725 5724 5722 5721 5719 5718 5716 5715 5715 5714 5715 5715 5715 5715 5715 5716 5716 5717 5718 5720 5721 5723 5724 5726 5728 5731 5733 5735 5737 5740 5742
5733 5731 5728 5726 5724 5722 5720 5717 5715 5714 5712 5710 5709 5708 5706 5706 5705 5706 5705 5705 5706 5706 5706 5707 5707 5709 5710 5711 5713 5715 5716 5718 5720 5722 5724 5726 5729 5731
5726 5724 5721 5719 5717 5714 5712 5710 5707 5705 5704 5702 5700 5699 5698 5697 5696 5696 5696 5696 5696 5697 5697 5697 5698 5699 5700 5701 5703 5704 5706 5707 5709 5711 5713 5715 5717 5720
5718 5716 5714 5712 5709 5707 5705 5702 5700 5698 5696 5694 5692 5691 5689 5688 5687 5687 5686 5686 5686 5687 5687 5687 5688 5689 5690 5691 5693 5694 5695 5697 5698 5700 5702 5704 5706 5708
5712 5709 5707 5704 5702 5699 5697 5694 5692 5690 5687 5686 5684 5682 5681 5680 5679 5678 5677 5677 5677 5677 5677 5677 5678 5678 5680 5681 5682 5684 5685 5686 5688 5689 5690 5692 5694 5696
5705 5703 5700 5697 5694 5691 5689 5686 5684 5682 5679 5677 5676 5674 5672 5671 5670 5669 5668 5667 5667 5667 5667 5667 5667 5668 5669 5671 5672 5673 5674 5675 5676 5678 5679 5681 5683 5685
5699 5696 5693 5690 5687 5684 5681 5678 5676 5673 5671 5669 5667 5666 5664 5662 5661 5660 5659 5658 5657 5657 5657 5657 5657 5658 5659 5660 5661 5662 5664 5664 5666 5667 5668 5670 5671 5673
5693 5690 5686 5683 5680 5677 5674 5671 5668 5665 5663 5661 5659 5658 5656 5654 5653 5651 5650 5649 5649 5649 5647 5647 5647 5648 5649 5650 5651 5652 5653 5654 5655 5656 5658 5659 5660 5662
5687 5684 5680 5676 5673 5670 5667 5664 5661 5658 5656 5653 5651 5649 5648 5646 5644 5643 5641 5640 5640 5639 5639 5639 5639 5639 5640 5640 5641 5642 5643 5644 5645 5646 5647 5648 5650 5652
5681 5677 5674 5670 5667 5664 5661 5658 5654 5651 5649 5646 5644 5642 5640 5638 5636 5635 5633 5632 5632 5631 5630 5630 5630 5630 5631 5631 5632 5632 5633 5633 5634 5635 5636 5638 5640 5642
5676 5672 5669 5665 5661 5658 5655 5651 5648 5645 5642 5639 5637 5634 5632 5630 5628 5627 5625 5624 5624 5623 5622 5622 5622 5622 5622 5622 5623 5623 5623 5624 5625 5626 5627 5628 5630 5631
5671 5667 5663 5659 5655 5652 5648 5645 5642 5639 5636 5633 5630 5628 5626 5623 5621 5619 5618 5617 5616 5615 5614 5614 5614 5613 5614 5614 5614 5614 5615 5615 5616 5617 5618 5619 5620 5622
5666 5662 5658 5654 5650 5646 5643 5639 5636 5632 5629 5627 5624 5621 5619 5616 5614 5612 5611 5609 5608 5608 5607 5606 5606 5605 5605 5606 5606 5606 5606 5606 5607 5608 5609 5610 5611 5612
5661 5657 5653 5649 5645 5641 5637 5634 5630 5626 5623 5620 5617 5615 5612 5610 5607 5606 5604 5602 5601 5600 5599 5599 5598 5598 5598 5598 5598 5598 5598 5598 5599 5599 5600 5601 5602 5603
5656 5652 5648 5644 5640 5636 5633 5629 5625 5621 5617 5614 5611 5608 5605 5602 5600 5598 5597 5595 5594 5593 5592 5592 5591 5591 5591 5591 5590 5590 5590 5590 5590 5591 5591 5592 5593 5594
5652 5648 5644 5640 5636 5631 5627 5623 5619 5615 5612 5608 5605 5602 5599 5596 5593 5591 5590 5588 5587 5587 5586 5585 5584 5584 5583 5583 5583 5583 5582 5582 5582 5583 5583 5584 5585 5586
5648 5644 5639 5635 5631 5627 5622 5618 5614 5610 5606 5603 5599 5596 5593 5590 5587 5585 5583 5581 5580 5579 5579 5578 5577 5577 5576 5576 5576 5576 5575 5575 5575 5575 5576 5577 5578 5579
5644 5640 5635 5631 5626 5622 5617 5613 5609 5605 5601 5597 5594 5590 5587 5584 5582 5580 5578 5576 5574 5573 5572 5572 5571 5570 5570 5570 5569 5569 5568 5568 5568 5569 5569 5570 5571 5571
5641 5636 5631 5627 5622 5617 5612 5608 5603 5599 5595 5592 5589 5585 5582 5579 5577 5574 5572 5570 5569 5567 5566 5566 5565 5564 5564 5563 5563 5562 5562 5562 5562 5562 5563 5563 5563 5564
5637 5632 5627 5622 5617 5612 5607 5603 5598 5594 5590 5587 5584 5580 5577 5574 5572 5569 5567 5565 5563 5562 5561 5560 5559 5558 5558 5558 5557 5556 5556 5556 5556 5556 5556 5556 5556 5556
5633 5628 5623 5618 5613 5608 5603 5598 5594 5590 5586 5582 5579 5576 5573 5570 5567 5565 5563 5561 5559 5557 5555 5554 5553 5552 5551 5551 5551 5551 5550 5549 5549 5549 5549 5549 5549 5549
5629 5625 5619 5614 5609 5604 5599 5594 5590 5586 5582 5578 5575 5572 5569 5566 5563 5560 5558 5556 5554 5552 5551 5549 5548 5547 5547 5546 5545 5545 5544 5544 5544 5543 5543 5544 5543 5543
5626 5621 5616 5610 5605 5599 5595 5590 5586 5581 5578 5574 5571 5568 5565 5562 5559 5556 5554 5551 5550 5548 5546 5544 5543 5542 5542 5541 5540 5539 5539 5538 5538 5538 5538 5538 5538 5538